Wind_Speed
28 28 29 29 30 31 32 32 33 33 33 33 32 32 31 30 30 29 29 29 29 30 30 30 31 32 33 33 34 34 35 36 37 38 39 39 40 40 40 41 43 44 45 46 46 46 46 46 47 47 47 47 47 46 46 46 44 43 43 43 43 43 44
30 30 31 31 32 32 33 33 34 34 34 34 35 34 34 34 33 33 32 32 32 32 32 32 33 33 34 35 36 36 37 38 39 39 40 40 41 42 43 43 45 46 48 48 48 47 47 47 47 47 47 47 48 47 47 47 47 46 44 44 44 43 43
30 31 31 32 32 33 33 33 34 34 35 35 35 35 35 36 35 35 34 34 34 34 34 34 35 35 35 35 36 36 36 38 38 39 39 39 40 41 41 42 44 46 48 49 49 48 47 47 47 47 46 46 47 47 47 48 48 48 47 46 46 45 44
29 30 30 30 31 32 32 33 33 33 34 34 34 34 34 35 35 35 35 34 34 34 34 35 35 35 35 35 36 36 36 37 37 37 37 37 38 39 40 40 41 43 46 47 48 47 46 45 45 45 45 45 46 46 47 47 48 48 48 48 48 47 45
29 29 29 30 30 30 31 31 32 32 32 33 33 34 34 34 34 34 35 35 35 35 35 35 35 35 36 36 36 37 37 37 37 38 38 38 38 38 39 39 40 41 43 45 46 46 45 44 44 44 44 44 44 45 46 46 47 47 48 48 49 48 47
30 30 30 30 30 31 31 31 32 32 32 32 32 33 33 34 34 34 35 35 35 35 35 35 35 36 36 36 37 37 38 38 38 39 39 39 39 38 39 39 39 40 41 42 44 44 44 43 43 43 43 43 43 44 45 46 46 47 47 47 48 48 47
31 31 31 31 32 32 32 32 32 33 33 33 33 33 34 34 34 34 35 35 35 35 35 35 35 35 36 36 37 37 37 38 38 39 39 39 39 39 39 39 39 39 40 41 42 43 43 43 42 42 42 42 42 43 45 45 46 46 46 46 47 47 47
33 33 33 33 34 34 34 34 34 34 34 34 35 35 35 35 36 36 36 36 36 36 36 36 36 36 36 37 37 37 37 37 38 38 38 38 38 38 39 39 40 40 41 41 42 42 43 43 43 42 41 40 40 42 43 43 44 45 45 45 46 47 47
35 36 36 36 36 37 37 37 37 37 37 37 37 37 37 37 37 37 37 37 37 38 38 38 38 37 38 38 38 38 38 38 38 38 38 38 38 38 38 38 38 39 41 42 42 43 43 44 44 43 42 41 40 40 41 42 43 44 44 44 45 45 45
37 37 37 38 38 38 39 39 39 39 40 40 40 40 39 39 39 39 39 38 38 38 38 39 39 39 39 39 39 40 40 40 40 40 40 39 39 39 39 38 38 38 39 40 42 43 44 45 45 46 45 44 43 42 42 42 43 44 45 45 46 45 45
37 37 38 38 39 39 40 41 41 41 41 42 43 43 43 43 42 42 41 40 39 39 39 40 40 41 41 41 41 41 41 41 41 40 40 40 39 39 39 40 39 39 39 40 41 41 42 44 45 46 47 47 46 45 45 45 45 46 47 47 48 47 46
38 38 39 39 39 39 40 41 42 42 43 43 44 45 45 45 45 44 44 43 42 42 42 42 42 43 43 43 43 43 43 43 43 42 42 42 42 42 42 42 42 42 42 42 42 42 42 43 44 45 46 46 47 47 46 47 47 48 49 49 50 50 50
40 40 41 41 41 41 41 42 43 43 44 45 45 46 47 48 47 46 45 45 45 45 46 46 45 46 46 46 46 46 46 46 46 46 46 46 46 46 46 46 46 46 46 45 46 46 45 45 46 46 46 47 48 48 47 47 48 48 49 50 51 51 51
42 43 43 44 44 44 44 45 45 46 46 47 47 48 50 51 50 50 49 48 48 48 49 49 49 49 49 49 50 50 50 50 50 51 51 50 50 50 50 50 50 50 50 50 50 50 50 50 50 50 50 50 50 50 50 49 49 49 50 50 51 51 51
44 45 45 46 47 47 47 47 47 48 49 50 50 51 52 53 53 53 53 53 52 52 52 53 53 53 53 53 53 53 54 54 54 54 55 55 54 54 53 53 53 53 53 54 54 54 54 54 54 54 54 54 54 54 54 54 53 52 52 52 52 51 51
46 47 48 48 49 50 50 50 50 51 51 52 53 54 55 55 56 57 57 57 56 55 56 56 56 57 57 56 56 56 57 57 57 58 58 58 58 57 57 56 56 56 56 56 57 58 58 58 57 57 57 57 58 59 58 58 57 55 54 53 53 53 52
49 50 51 51 52 53 53 53 54 54 54 55 56 57 57 58 58 59 60 60 60 59 59 59 59 60 60 60 60 60 59 59 60 60 60 60 60 59 59 59 59 59 59 59 59 60 60 60 60 59 59 60 60 61 60 59 58 57 56 56 56 56 55
53 54 54 55 55 56 56 56 57 57 57 57 58 59 60 61 61 62 62 63 63 62 62 62 62 62 63 63 63 62 61 61 62 62 62 62 62 61 61 61 61 61 61 60 60 60 61 61 61 61 61 61 62 62 61 61 60 59 59 59 59 59 59
57 57 58 58 59 59 59 60 60 60 60 60 60 61 62 63 64 64 65 65 65 65 65 65 65 65 65 65 65 64 64 63 64 64 64 64 64 64 63 63 63 63 62 61 61 61 61 61 61 61 61 62 62 62 62 61 61 61 61 61 61 61 61
60 60 60 61 61 62 62 63 63 63 62 62 62 62 63 65 65 65 65 66 66 66 67 67 67 66 66 66 66 66 66 66 66 66 66 66 67 67 67 66 66 66 65 64 63 62 61 61 61 61 62 63 63 63 63 62 62 62 62 63 62 62 62
61 62 62 62 62 62 62 63 63 63 63 62 62 62 63 63 64 64 65 65 66 66 66 66 66 66 66 66 66 67 67 67 67 68 69 70 70 70 70 70 69 69 68 67 65 63 63 63 63 63 64 65 65 65 65 65 64 64 64 64 64 64 64
60 60 60 59 59 59 59 59 59 59 59 59 58 58 58 58 58 59 61 62 62 62 62 62 63 63 63 64 64 65 66 67 68 69 70 69 69 69 69 70 70 69 69 68 66 65 65 65 66 66 66 66 66 66 66 66 66 65 66 66 66 66 66
57 56 55 55 55 55 55 55 55 55 55 54 54 53 53 53 54 54 56 57 57 57 57 58 58 58 59 59 60 61 63 64 65 66 65 65 65 66 67 68 68 69 69 69 68 68 68 68 68 68 67 67 67 67 67 67 67 66 67 67 67 68 68
54 54 53 53 52 52 52 52 52 52 52 52 52 51 51 51 51 52 53 54 54 54 54 54 54 55 55 55 56 58 59 60 60 61 61 61 62 63 64 65 66 67 67 68 69 69 69 69 68 67 67 67 67 67 67 67 67 67 67 67 67 67 67
54 54 54 54 53 52 51 51 51 51 50 50 50 50 50 50 50 50 51 52 52 53 53 53 53 53 53 53 54 55 56 56 57 57 57 58 58 59 60 61 62 63 64 65 65 66 66 66 65 65 65 65 65 65 65 65 65 65 65 65 65 65 65
54 54 54 54 53 53 52 51 51 50 50 49 50 50 49 49 49 49 49 50 51 51 52 52 53 53 53 52 52 53 53 53 54 54 55 55 55 56 56 57 58 59 59 60 61 61 62 62 62 62 62 62 62 62 62 62 62 62 62 63 63 64 64
51 52 51 52 52 51 51 50 49 49 49 49 49 49 49 49 48 48 49 49 50 50 51 51 52 52 52 51 51 51 51 52 52 52 53 53 53 53 54 54 55 56 56 57 57 57 57 57 58 58 58 58 58 58 59 58 59 59 59 59 59 61 62
47 47 48 49 49 48 48 47 46 46 46 46 47 47 47 47 47 48 48 48 49 49 50 50 50 50 49 49 49 50 50 50 50 50 51 51 51 51 51 52 53 53 54 54 54 54 54 54 54 54 54 55 55 55 55 55 55 56 56 56 56 58 59
44 44 45 45 45 45 45 44 43 42 43 44 44 45 45 46 46 47 47 48 48 49 49 48 48 47 46 46 47 48 49 48 48 48 49 49 49 49 50 50 50 50 51 52 52 52 51 51 51 51 51 52 52 52 51 51 52 52 52 53 54 55 55
41 42 42 42 42 43 43 42 41 40 40 41 41 42 43 43 44 45 46 47 48 48 47 46 46 45 45 45 46 47 47 47 47 47 47 47 47 47 47 48 48 48 49 49 49 49 49 49 49 49 49 49 49 49 49 49 49 49 49 50 51 51 51
39 40 41 41 41 41 40 40 40 40 39 39 39 40 40 41 42 44 45 45 45 45 45 45 45 44 44 44 44 45 45 45 45 45 45 44 44 45 45 46 46 46 47 46 46 46 46 46 46 47 47 47 47 47 47 46 46 47 47 48 48 49 49
37 38 39 40 40 40 39 39 39 39 39 39 38 38 39 40 41 42 42 42 42 43 44 44 44 43 42 42 43 43 44 44 43 43 43 43 42 42 43 44 44 44 44 43 43 43 43 43 44 45 45 45 45 45 45 44 44 44 45 45 46 46 47
36 36 37 38 38 38 38 38 37 37 37 38 38 37 38 38 38 39 39 40 41 42 42 42 42 42 41 41 41 41 42 42 41 41 41 41 41 41 41 42 42 42 42 41 41 41 41 41 42 43 43 43 43 43 43 43 42 42 42 43 44 44 44
33 34 35 35 35 36 36 36 36 35 35 35 35 36 36 36 35 36 37 38 39 40 41 41 41 41 40 40 40 40 40 40 40 39 39 39 39 40 40 40 40 41 41 41 40 40 40 41 41 42 42 42 42 42 42 42 41 41 41 41 42 42 42
29 31 32 32 32 32 32 32 32 32 32 32 32 33 34 34 34 34 35 35 37 38 40 40 41 40 40 39 39 39 39 38 38 39 39 39 39 39 39 39 39 39 39 40 39 39 39 40 41 41 41 41 41 41 41 40 40 39 39 40 40 41 41
25 26 28 29 30 29 29 29 29 29 29 29 29 30 31 31 31 32 32 32 33 35 37 38 39 39 40 39 39 38 38 37 38 38 38 38 38 38 38 38 38 38 38 38 38 38 38 39 39 39 39 39 40 39 39 39 39 38 38 38 38 39 39
Wind_Direction
260 260 258 257 257 258 259 260 261 262 263 264 265 265 265 264 263 262 260 259 258 257 257 257 257 257 258 259 259 260 260 259 259 259 259 259 259 258 258 257 258 260 261 261 260 259 258 257 256 256 255 254 253 252 252 251 250 249 249 250 250 250 251
260 261 261 261 260 260 260 261 262 263 265 266 268 269 269 270 270 269 268 268 267 266 265 264 264 264 264 264 264 265 265 265 265 265 264 264 263 262 260 259 258 259 260 260 259 258 257 256 256 255 254 254 253 253 252 252 252 251 250 250 249 249 249
261 261 262 262 263 263 263 264 264 265 266 266 267 269 269 270 271 271 271 271 271 270 270 269 268 268 268 268 268 267 267 268 268 267 267 266 265 264 263 261 260 259 259 258 258 257 257 256 255 254 254 253 252 252 252 251 252 252 252 251 250 250 249
263 263 263 264 264 264 265 266 266 266 267 268 268 269 269 269 269 270 270 269 269 269 269 269 269 268 268 269 269 269 269 268 267 267 266 265 265 264 263 262 262 261 261 260 259 258 257 257 256 255 254 253 252 251 251 251 250 251 251 252 251 251 250
265 265 265 265 266 266 266 267 267 267 267 267 268 269 269 269 269 269 268 268 268 267 266 266 266 266 266 267 267 267 266 266 266 265 264 264 263 262 261 261 260 260 260 260 260 260 258 257 256 255 254 252 252 251 251 250 250 249 249 250 250 250 250
266 267 267 267 267 266 267 267 267 267 267 267 267 267 267 268 268 268 268 268 267 267 266 265 264 264 264 264 264 264 263 263 263 263 262 262 261 260 259 258 258 257 257 257 258 258 258 256 255 255 253 252 251 251 250 250 250 249 248 248 248 248 249
267 267 268 268 268 268 268 268 267 267 267 267 267 267 266 266 266 266 267 267 266 266 266 265 264 263 262 261 261 261 261 262 262 261 261 261 260 259 258 257 257 256 255 255 256 257 258 257 256 255 253 252 251 251 251 251 251 251 250 249 248 247 246
268 268 268 269 269 269 268 268 268 268 267 267 267 266 266 266 266 266 266 266 266 266 265 265 264 264 263 262 262 261 261 261 261 261 261 261 261 260 259 258 257 257 256 256 256 257 258 259 258 257 255 254 253 252 253 253 253 253 252 251 251 250 248
267 268 268 269 269 269 269 269 268 268 268 267 267 266 266 266 266 266 265 265 266 266 266 265 265 264 264 263 263 262 262 261 261 261 261 261 261 261 260 259 258 257 257 257 258 258 258 259 259 259 258 257 255 255 255 255 255 254 253 252 252 252 252
267 267 267 268 268 268 268 268 268 268 268 267 267 266 266 265 265 265 265 265 264 265 265 266 265 265 264 263 263 262 262 262 262 261 261 261 261 261 261 260 259 258 257 257 258 259 260 261 262 262 262 260 259 257 256 255 255 255 255 255 253 252 252
267 267 267 267 267 268 268 268 268 268 268 267 267 266 265 264 264 264 264 265 264 263 263 264 264 264 264 263 263 262 261 261 261 260 261 261 261 261 261 261 261 260 259 259 259 259 259 261 262 263 263 264 263 261 260 259 258 257 257 258 257 255 254
270 270 269 268 268 268 268 268 269 269 269 269 269 268 267 265 264 263 263 264 264 264 263 262 263 263 263 263 262 262 261 261 260 260 261 261 261 261 262 262 262 262 262 261 261 261 261 261 261 262 262 263 263 262 262 261 260 260 259 259 259 259 258
273 273 272 271 271 270 269 269 269 269 270 270 270 270 269 268 267 266 266 265 265 265 265 264 263 263 263 264 263 262 262 262 261 261 262 262 263 263 263 263 263 263 263 263 262 262 262 262 261 261 261 261 262 261 261 260 260 260 260 260 260 260 259
274 273 273 272 272 271 271 270 270 270 270 270 270 270 270 270 269 269 269 268 268 267 267 267 266 265 265 265 266 265 264 264 263 262 262 262 262 263 264 264 263 263 263 263 262 262 262 261 261 261 261 261 261 261 261 260 259 258 258 259 259 259 260
274 274 274 273 273 272 272 272 271 271 271 272 272 272 271 271 271 271 271 270 270 270 270 269 269 268 267 267 267 267 267 266 265 264 263 263 262 262 262 262 263 263 263 263 262 262 261 261 260 260 260 260 260 259 259 259 258 258 258 258 259 259 260
273 273 273 273 273 273 273 273 273 273 273 273 273 273 272 272 272 272 272 272 272 272 272 272 271 270 270 270 269 268 268 268 267 266 265 264 263 263 262 262 261 261 262 262 262 262 262 261 261 260 260 260 260 260 260 260 260 260 260 259 259 258 259
274 274 273 273 273 272 272 272 273 273 273 274 274 274 273 273 273 272 272 272 272 272 272 272 272 272 271 271 270 270 269 269 268 268 267 266 265 264 263 262 261 261 260 260 260 261 261 262 261 261 260 259 259 260 260 260 260 259 260 259 258 257 256
278 278 277 276 276 275 274 274 273 273 273 273 273 273 273 272 272 272 272 272 272 272 272 271 271 271 271 270 270 270 269 269 268 268 267 267 266 265 264 263 262 261 260 259 259 259 260 260 260 260 260 260 259 259 259 259 259 258 258 258 258 257 257
281 280 280 280 280 279 278 278 277 276 275 275 274 274 273 272 271 271 271 271 271 271 271 270 270 270 270 269 269 269 268 268 267 267 267 266 266 265 264 264 263 262 261 260 259 258 258 258 259 259 259 260 260 259 259 259 259 258 258 257 257 257 257
281 281 281 281 281 281 280 280 279 279 278 277 276 276 274 274 273 272 271 271 270 269 269 269 269 269 268 268 268 267 267 266 266 266 265 265 264 264 263 262 262 261 261 260 259 258 258 257 257 257 258 258 258 258 258 258 257 257 257 257 256 256 256
283 282 282 282 281 281 281 280 280 279 279 278 278 277 276 276 275 274 273 272 271 270 269 268 267 266 266 266 266 265 265 265 264 263 263 263 263 263 262 262 262 262 262 262 261 260 259 257 256 256 256 256 256 257 257 257 257 256 256 257 256 256 255
284 284 284 283 283 282 281 281 280 280 279 279 278 277 277 276 275 274 273 273 272 271 270 268 267 266 265 264 264 263 263 263 262 262 263 263 263 263 263 263 263 262 262 261 261 259 258 257 256 255 255 255 255 256 256 257 257 256 256 256 256 256 256
286 285 285 284 284 283 283 282 282 281 280 279 279 278 277 276 276 275 274 274 273 272 271 270 268 267 265 263 263 262 262 262 262 262 263 262 262 261 261 261 260 260 260 259 258 257 256 256 256 255 255 255 254 254 255 255 256 256 256 256 256 256 257
286 286 285 284 284 284 283 283 282 282 281 281 280 279 278 277 276 275 275 275 274 273 272 271 269 268 266 264 263 262 261 261 261 261 261 261 261 261 261 260 260 260 259 259 258 257 257 256 256 256 256 255 255 254 254 254 255 255 255 256 256 256 256
286 285 285 284 283 283 282 282 281 281 281 280 279 278 277 277 276 275 274 274 273 272 271 271 269 268 267 265 264 262 262 261 261 261 261 261 261 261 261 261 261 260 260 260 259 259 258 258 257 257 257 256 256 255 255 255 255 255 255 255 255 255 255
284 284 284 283 282 282 281 280 280 280 279 279 278 277 277 276 275 274 273 273 272 271 271 270 269 268 267 266 265 264 263 261 260 260 260 260 260 260 261 261 261 260 260 260 260 260 260 259 259 258 258 258 258 257 257 257 256 256 256 255 256 255 255
282 282 282 282 281 281 281 280 279 279 278 278 277 277 276 275 275 274 273 272 271 270 269 269 268 268 268 267 267 265 264 262 261 260 259 259 259 260 260 260 260 260 260 260 260 260 260 260 259 259 259 259 259 259 259 258 258 258 257 257 257 257 256
282 282 281 281 281 280 280 279 279 279 278 277 277 276 275 275 274 273 273 272 271 270 269 268 268 268 268 268 267 266 265 264 263 261 260 259 259 259 259 259 260 260 261 261 261 260 260 260 260 260 260 259 259 259 259 259 259 259 259 259 258 258 257
282 282 281 281 281 281 280 280 279 279 278 277 277 276 275 275 274 273 272 272 271 270 270 269 270 269 269 268 267 266 265 265 264 263 262 261 260 259 259 259 259 260 260 261 261 261 261 260 260 260 260 259 259 259 259 259 259 259 259 259 259 259 258
284 283 283 282 282 282 283 283 282 281 280 279 279 278 277 276 275 274 272 271 271 271 271 271 270 269 267 267 267 266 266 265 264 264 263 263 262 261 260 259 259 259 259 260 261 261 261 261 260 260 259 259 259 259 258 258 259 259 259 259 259 259 258
284 284 284 284 284 284 284 285 285 284 283 283 282 281 280 278 276 275 274 273 273 273 272 271 270 269 268 268 267 266 266 265 264 264 263 263 263 263 262 261 260 259 259 260 260 261 261 260 260 260 259 259 259 258 258 258 258 258 258 258 258 258 258
283 284 284 284 285 285 285 285 285 285 286 285 284 283 282 281 280 279 278 278 276 275 273 272 271 270 269 268 267 266 266 265 265 264 263 263 262 262 262 261 261 260 260 260 260 260 260 260 260 259 259 259 258 258 258 258 258 258 258 258 258 258 258
284 283 283 284 284 285 285 285 285 285 285 286 285 285 284 283 283 282 280 278 276 275 274 274 273 272 271 269 268 267 266 266 266 265 264 263 262 261 260 260 260 260 260 259 259 259 258 258 258 258 258 258 257 257 257 257 257 256 257 257 258 258 258
283 283 283 284 284 284 285 286 286 286 286 286 286 285 285 284 283 281 280 279 278 277 275 274 273 273 272 271 269 268 267 267 266 265 264 263 262 261 260 260 259 259 259 258 258 257 257 256 256 256 257 257 257 257 256 256 255 255 255 255 256 257 257
281 283 284 284 284 285 286 287 287 288 288 287 286 285 285 285 284 282 281 281 280 279 277 275 274 273 272 271 270 269 268 267 266 265 264 263 262 261 261 260 260 259 259 258 258 257 257 257 256 257 257 257 257 256 256 256 255 254 254 254 254 255 256
282 283 284 285 285 286 287 288 289 289 289 288 288 287 286 286 285 285 284 282 280 279 278 277 276 275 274 273 272 270 269 268 267 265 264 264 263 262 261 260 260 260 259 259 259 258 257 257 257 257 257 257 257 257 256 255 255 254 254 254 254 254 254
Height
2980 2980 2981 2981 2981 2981 2982 2982 2982 2982 2982 2982 2983 2983 2983 2984 2984 2985 2986 2987 2987 2988 2989 2989 2989 2990 2990 2991 2992 2992 2992 2993 2993 2994 2995 2995 2996 2997 2997 2998 2999 3000 3002 3003 3005 3006 3007 3008 3009 3010 3011 3013 3013 3015 3015 3016 3018 3019 3020 3021 3022 3024 3025
2976 2976 2976 2977 2977 2977 2978 2978 2978 2978 2978 2978 2978 2979 2979 2979 2980 2980 2981 2981 2982 2983 2983 2984 2984 2985 2985 2986 2987 2987 2987 2987 2988 2988 2989 2989 2990 2991 2991 2992 2993 2994 2996 2997 2998 2999 2999 3000 3002 3003 3004 3005 3007 3008 3009 3010 3011 3012 3013 3014 3015 3017 3018
2972 2972 2972 2972 2972 2973 2973 2973 2973 2974 2974 2974 2974 2974 2975 2975 2975 2975 2975 2976 2976 2977 2978 2978 2979 2979 2980 2980 2981 2981 2981 2982 2982 2982 2983 2983 2984 2985 2985 2986 2987 2988 2989 2990 2991 2992 2993 2993 2994 2995 2997 2998 2999 3001 3002 3003 3004 3005 3006 3007 3008 3010 3011
2967 2967 2967 2967 2967 2968 2968 2968 2968 2969 2969 2969 2969 2970 2970 2970 2971 2971 2971 2971 2972 2972 2973 2973 2974 2974 2975 2975 2975 2976 2976 2976 2977 2977 2978 2978 2979 2979 2980 2980 2981 2982 2983 2983 2984 2985 2986 2986 2987 2988 2990 2991 2992 2993 2995 2996 2997 2998 2999 3000 3001 3003 3004
2963 2963 2963 2963 2963 2963 2963 2963 2964 2964 2964 2964 2965 2965 2965 2965 2966 2966 2966 2967 2967 2968 2968 2968 2969 2969 2969 2970 2970 2971 2971 2971 2972 2972 2973 2974 2974 2974 2975 2975 2976 2977 2977 2977 2978 2979 2980 2980 2981 2981 2983 2984 2985 2986 2987 2989 2990 2991 2992 2993 2994 2996 2997
2959 2959 2959 2959 2959 2959 2959 2959 2959 2959 2960 2960 2960 2960 2961 2961 2961 2961 2962 2962 2962 2963 2963 2963 2964 2964 2965 2965 2965 2966 2966 2967 2967 2967 2968 2968 2969 2969 2970 2970 2971 2972 2972 2972 2972 2972 2973 2974 2975 2976 2977 2978 2979 2979 2980 2981 2982 2983 2984 2986 2987 2989 2990
2955 2955 2955 2955 2955 2955 2955 2955 2955 2955 2955 2955 2956 2956 2956 2956 2957 2957 2957 2957 2958 2958 2958 2959 2959 2959 2960 2960 2961 2961 2961 2962 2962 2962 2962 2963 2963 2964 2964 2965 2966 2966 2966 2967 2966 2966 2967 2967 2969 2970 2971 2972 2973 2973 2974 2975 2975 2976 2978 2979 2980 2982 2983
2951 2951 2951 2950 2950 2950 2950 2950 2950 2950 2950 2951 2951 2951 2951 2952 2952 2952 2952 2952 2953 2953 2953 2953 2954 2954 2954 2955 2955 2955 2956 2956 2956 2957 2957 2957 2957 2958 2959 2959 2960 2960 2961 2961 2961 2961 2961 2961 2962 2963 2965 2967 2967 2967 2968 2969 2969 2970 2971 2972 2972 2974 2976
2947 2946 2946 2946 2946 2945 2945 2945 2945 2945 2945 2945 2945 2946 2946 2946 2947 2947 2947 2947 2947 2947 2947 2948 2948 2949 2949 2949 2949 2949 2950 2950 2951 2951 2951 2951 2952 2952 2953 2953 2954 2954 2955 2955 2955 2956 2956 2956 2956 2957 2959 2960 2961 2962 2962 2962 2962 2963 2964 2965 2966 2968 2969
2942 2942 2941 2941 2941 2941 2940 2940 2940 2940 2940 2940 2940 2940 2941 2941 2941 2941 2942 2942 2942 2942 2942 2942 2942 2943 2943 2943 2943 2943 2943 2944 2944 2945 2945 2945 2946 2946 2947 2947 2948 2949 2949 2949 2950 2950 2950 2951 2951 2951 2952 2953 2955 2955 2956 2956 2956 2956 2957 2958 2959 2961 2963
2937 2937 2937 2936 2936 2936 2935 2935 2935 2935 2934 2934 2934 2934 2935 2935 2936 2936 2936 2937 2937 2937 2937 2936 2936 2936 2937 2937 2937 2937 2938 2938 2938 2939 2939 2939 2940 2940 2940 2941 2942 2942 2943 2943 2944 2945 2945 2945 2945 2945 2945 2946 2947 2948 2949 2949 2950 2950 2951 2951 2951 2954 2956
2932 2932 2931 2931 2931 2931 2931 2930 2929 2929 2929 2928 2928 2927 2927 2928 2929 2930 2931 2931 2931 2930 2931 2931 2931 2930 2931 2931 2931 2931 2932 2932 2932 2933 2933 2933 2934 2934 2934 2934 2935 2936 2936 2937 2937 2938 2939 2939 2939 2939 2940 2940 2940 2941 2942 2942 2943 2943 2944 2944 2945 2946 2947
2926 2926 2926 2925 2925 2925 2925 2925 2924 2924 2923 2922 2922 2921 2920 2920 2922 2923 2924 2924 2924 2924 2924 2924 2924 2924 2924 2924 2924 2925 2925 2926 2926 2926 2927 2927 2927 2927 2928 2928 2928 2929 2930 2930 2931 2931 2932 2933 2932 2933 2933 2933 2932 2933 2934 2935 2936 2936 2936 2937 2938 2938 2940
2921 2920 2920 2919 2919 2919 2919 2919 2918 2918 2917 2916 2916 2914 2913 2913 2914 2915 2915 2916 2916 2916 2916 2916 2917 2917 2918 2918 2917 2918 2918 2918 2919 2919 2919 2920 2920 2920 2921 2921 2921 2922 2922 2923 2923 2924 2925 2925 2925 2925 2926 2926 2926 2926 2927 2928 2929 2929 2929 2929 2930 2931 2933
2914 2914 2913 2913 2912 2912 2912 2912 2911 2911 2910 2909 2909 2907 2907 2907 2907 2907 2907 2907 2908 2908 2908 2908 2909 2909 2910 2910 2910 2910 2909 2910 2910 2910 2911 2911 2912 2913 2913 2913 2914 2914 2914 2915 2915 2915 2916 2917 2917 2918 2918 2918 2918 2918 2918 2919 2920 2921 2922 2923 2923 2925 2927
2908 2908 2907 2906 2906 2905 2905 2905 2904 2904 2904 2903 2901 2900 2900 2900 2900 2899 2898 2899 2900 2900 2899 2899 2899 2900 2900 2901 2901 2901 2901 2901 2901 2900 2901 2902 2902 2904 2904 2905 2906 2906 2906 2906 2906 2907 2907 2908 2909 2910 2910 2910 2909 2909 2910 2911 2913 2914 2915 2915 2917 2919 2920
2901 2901 2900 2899 2899 2898 2898 2898 2897 2897 2896 2895 2893 2892 2892 2892 2891 2891 2891 2890 2891 2891 2891 2890 2890 2890 2891 2891 2892 2892 2892 2891 2891 2891 2891 2892 2893 2894 2895 2896 2897 2897 2897 2898 2898 2898 2899 2899 2900 2901 2901 2902 2901 2901 2903 2904 2905 2907 2906 2906 2908 2910 2912
2893 2892 2891 2890 2890 2889 2889 2889 2888 2888 2888 2887 2885 2884 2883 2883 2882 2882 2882 2882 2882 2882 2882 2882 2882 2881 2881 2882 2882 2882 2882 2882 2881 2881 2882 2882 2883 2884 2884 2885 2886 2886 2888 2889 2889 2890 2890 2890 2891 2891 2892 2893 2893 2894 2894 2895 2896 2898 2897 2897 2899 2901 2902
2884 2883 2881 2881 2880 2879 2879 2878 2878 2878 2878 2877 2876 2874 2873 2873 2873 2873 2873 2873 2873 2872 2872 2872 2872 2872 2872 2872 2872 2872 2873 2872 2871 2871 2872 2872 2872 2873 2874 2875 2874 2876 2878 2879 2880 2881 2881 2882 2883 2883 2884 2884 2884 2885 2886 2886 2887 2889 2887 2888 2890 2892 2893
2874 2874 2873 2871 2870 2870 2868 2867 2867 2867 2867 2866 2865 2863 2862 2862 2863 2863 2862 2862 2862 2862 2862 2862 2862 2863 2862 2862 2862 2862 2862 2862 2861 2861 2861 2861 2861 2862 2863 2862 2862 2864 2867 2868 2870 2872 2873 2874 2874 2874 2874 2875 2875 2875 2876 2876 2878 2879 2878 2878 2881 2883 2883
2864 2863 2863 2862 2861 2860 2858 2857 2856 2856 2855 2855 2854 2852 2850 2851 2852 2851 2850 2850 2851 2851 2851 2852 2852 2852 2852 2851 2851 2851 2851 2851 2850 2848 2849 2850 2851 2851 2851 2851 2852 2855 2856 2858 2860 2863 2863 2864 2865 2865 2865 2865 2865 2866 2866 2866 2868 2869 2869 2869 2871 2873 2874
2853 2853 2852 2851 2850 2849 2848 2847 2846 2845 2845 2844 2843 2842 2840 2840 2840 2839 2838 2838 2839 2839 2839 2840 2840 2841 2841 2841 2841 2841 2840 2839 2838 2838 2839 2841 2841 2840 2841 2841 2843 2844 2846 2847 2849 2850 2851 2852 2853 2854 2855 2855 2856 2856 2856 2856 2858 2859 2860 2860 2861 2862 2864
2843 2843 2842 2841 2840 2838 2837 2836 2836 2835 2835 2834 2833 2832 2831 2830 2830 2829 2827 2827 2828 2828 2828 2829 2829 2829 2830 2830 2831 2830 2829 2829 2829 2829 2830 2830 2829 2829 2830 2830 2831 2832 2833 2835 2836 2837 2838 2840 2842 2843 2844 2845 2846 2847 2847 2847 2847 2849 2850 2850 2851 2853 2854
2834 2833 2833 2832 2831 2830 2829 2828 2827 2826 2825 2824 2824 2823 2822 2822 2821 2821 2819 2818 2819 2819 2818 2818 2818 2819 2819 2820 2820 2820 2820 2820 2821 2821 2820 2820 2819 2819 2819 2819 2820 2822 2822 2823 2824 2825 2827 2830 2832 2832 2833 2834 2835 2836 2836 2837 2838 2839 2840 2841 2842 2844 2846
2826 2825 2824 2823 2823 2822 2821 2820 2819 2818 2817 2816 2815 2815 2814 2813 2813 2812 2811 2810 2810 2810 2809 2809 2809 2809 2809 2810 2810 2810 2811 2812 2812 2812 2811 2811 2811 2810 2810 2811 2811 2812 2812 2813 2814 2816 2817 2820 2821 2821 2822 2823 2824 2825 2826 2828 2828 2829 2831 2831 2833 2835 2836
2818 2817 2816 2815 2814 2813 2813 2812 2811 2811 2809 2808 2807 2806 2806 2805 2805 2804 2803 2802 2802 2801 2801 2800 2800 2800 2800 2801 2801 2801 2802 2803 2803 2803 2803 2803 2802 2802 2802 2802 2802 2803 2803 2804 2805 2806 2808 2810 2811 2811 2812 2814 2814 2815 2817 2818 2818 2819 2821 2822 2823 2824 2827
2811 2810 2808 2807 2806 2805 2805 2804 2804 2803 2802 2800 2799 2799 2798 2797 2797 2796 2795 2795 2794 2793 2793 2792 2792 2791 2792 2792 2793 2793 2793 2793 2794 2794 2794 2795 2795 2794 2794 2794 2794 2795 2795 2796 2797 2798 2799 2801 2802 2803 2804 2805 2805 2806 2808 2809 2809 2810 2812 2813 2814 2814 2818
2805 2803 2801 2800 2799 2798 2797 2797 2796 2795 2794 2793 2792 2791 2790 2789 2789 2788 2787 2786 2786 2785 2785 2784 2784 2784 2785 2785 2785 2784 2784 2785 2785 2786 2786 2786 2787 2787 2787 2787 2787 2787 2788 2788 2789 2790 2791 2792 2794 2794 2795 2796 2796 2798 2800 2800 2800 2801 2803 2804 2804 2805 2809
2797 2796 2794 2793 2791 2790 2789 2789 2789 2789 2787 2786 2784 2783 2782 2782 2781 2780 2779 2778 2777 2777 2777 2777 2778 2778 2778 2777 2776 2776 2776 2777 2777 2777 2778 2778 2779 2779 2780 2780 2780 2780 2780 2780 2781 2782 2783 2785 2786 2787 2787 2787 2788 2790 2791 2792 2792 2793 2794 2795 2795 2797 2800
2790 2788 2787 2785 2784 2783 2782 2781 2781 2781 2780 2779 2777 2776 2775 2775 2774 2773 2772 2771 2770 2770 2770 2771 2771 2771 2770 2770 2769 2769 2769 2769 2769 2770 2770 2770 2771 2771 2772 2773 2773 2773 2773 2773 2774 2775 2776 2777 2778 2779 2779 2780 2780 2782 2783 2784 2784 2785 2786 2787 2788 2789 2792
2784 2782 2780 2778 2777 2777 2776 2775 2774 2773 2772 2772 2771 2770 2769 2768 2766 2765 2764 2764 2764 2764 2763 2763 2763 2763 2763 2763 2763 2762 2762 2762 2762 2763 2763 2763 2764 2764 2764 2765 2765 2766 2766 2767 2768 2768 2769 2770 2770 2771 2772 2772 2773 2774 2776 2777 2777 2778 2779 2779 2780 2782 2784
2779 2776 2774 2773 2771 2770 2770 2769 2768 2766 2765 2765 2764 2763 2762 2761 2759 2758 2758 2758 2757 2757 2756 2755 2755 2755 2756 2756 2756 2755 2755 2755 2755 2756 2756 2756 2757 2758 2757 2757 2758 2758 2759 2760 2761 2761 2762 2762 2763 2763 2764 2765 2766 2767 2768 2770 2770 2771 2772 2772 2773 2774 2776
2773 2771 2769 2768 2766 2765 2763 2763 2762 2761 2760 2759 2758 2757 2756 2754 2754 2753 2752 2751 2750 2749 2749 2749 2748 2748 2749 2749 2749 2748 2748 2748 2749 2749 2749 2749 2750 2750 2751 2751 2751 2752 2753 2753 2753 2754 2755 2755 2756 2756 2757 2758 2759 2760 2761 2763 2764 2765 2765 2766 2767 2768 2769
2768 2766 2764 2763 2762 2760 2759 2757 2756 2756 2755 2753 2752 2750 2749 2748 2748 2747 2746 2745 2744 2743 2742 2742 2742 2742 2742 2742 2742 2742 2742 2742 2742 2742 2742 2742 2743 2743 2744 2744 2745 2745 2746 2746 2747 2747 2748 2748 2749 2750 2750 2751 2752 2753 2754 2756 2757 2758 2759 2759 2760 2761 2762
2765 2762 2760 2758 2757 2756 2754 2753 2752 2751 2749 2748 2747 2745 2743 2743 2742 2741 2740 2740 2738 2737 2736 2735 2735 2735 2735 2735 2735 2735 2735 2736 2736 2736 2735 2736 2736 2737 2737 2738 2739 2739 2740 2740 2741 2741 2742 2742 2743 2744 2744 2745 2746 2747 2748 2749 2750 2751 2752 2753 2754 2755 2756
2761 2759 2756 2754 2752 2751 2750 2749 2747 2746 2745 2743 2742 2740 2739 2738 2737 2736 2735 2735 2733 2732 2730 2729 2729 2729 2729 2729 2729 2729 2729 2729 2729 2729 2729 2729 2730 2730 2731 2732 2733 2733 2734 2734 2735 2736 2736 2736 2737 2738 2739 2739 2740 2741 2742 2743 2744 2745 2746 2747 2748 2749 2750